�N����,����,�~����,�C��,���x,�C��,����,���ϕ���,�ő�u�ԕ���,�ő厞����,���˗�,�I�_���x,�n�����x,�ő啗���N��,DTYPE
"19/06/27","00:10",0.0,23.6,83.4,1006.7,287.0,0.8,1.1,261.1,0.00,20.7,23.7,"00:07:52",1
"19/06/27","00:20",0.0,23.6,83.5,1006.0,297.2,0.8,1.4,315.7,0.00,20.7,23.6,"00:13:44",1
"19/06/27","00:30",0.0,23.6,83.5,1006.2,272.1,0.7,1.4,278.2,0.00,20.7,23.7,"00:28:32",1
"19/06/27","00:40",0.0,23.6,83.4,1006.2,304.5,0.8,1.7,337.3,0.00,20.7,23.8,"00:35:52",1
"19/06/27","00:50",0.0,23.7,83.4,1006.2,335.7,1.1,1.7,340.7,0.00,20.8,23.3,"00:41:04",1
"19/06/27","01:00",0.0,23.6,83.7,1005.7,322.6,1.1,1.6,325.9,0.00,20.7,23.5,"00:52:24",1
"19/06/27","01:10",0.0,23.6,84.0,1006.0,324.6,1.2,2.4,333.1,0.00,20.8,23.4,"01:07:36",1
"19/06/27","01:20",0.0,23.5,83.9,1005.7,292.7,0.8,1.4,316.7,0.00,20.7,23.5,"01:16:56",1
"19/06/27","01:30",0.0,23.5,83.8,1005.7,289.7,1.0,1.8,342.5,0.00,20.6,23.3,"01:26:32",1
"19/06/27","01:40",0.0,23.5,83.9,1005.5,296.6,1.0,2.1,326.6,0.00,20.7,23.4,"01:38:56",1
"19/06/27","01:50",0.0,23.5,83.8,1005.5,319.3,1.3,2.4,334.0,0.00,20.6,23.4,"01:43:20",1
"19/06/27","02:00",0.0,23.5,83.7,1005.2,281.3,0.7,1.0,278.4,0.00,20.6,23.4,"01:55:12",1
"19/06/27","02:10",0.0,23.5,83.7,1005.2,295.6,0.8,1.6,317.5,0.00,20.6,23.4,"02:03:28",1
"19/06/27","02:20",0.0,23.5,83.7,1005.0,274.0,0.8,1.3,255.6,0.00,20.6,23.3,"02:10:24",1
"19/06/27","02:30",0.0,23.5,83.8,1005.2,307.3,1.0,1.3,336.5,0.00,20.6,23.4,"02:27:20",1
"19/06/27","02:40",0.0,23.4,84.0,1005.0,294.8,0.7,1.1,325.1,0.00,20.6,23.2,"02:31:44",1
"19/06/27","02:50",0.0,23.4,84.3,1005.0,317.4,1.0,1.9,321.3,0.00,20.6,23.1,"02:48:56",1
"19/06/27","03:00",0.0,23.3,84.6,1004.5,286.5,1.0,2.1,330.8,0.00,20.6,23.3,"02:55:52",1
"19/06/27","03:10",0.0,23.3,84.7,1004.5,322.5,1.1,2.0,327.3,0.00,20.6,23.3,"03:02:08",1
"19/06/27","03:20",0.0,23.1,84.9,1004.5,288.0,0.7,1.2,272.0,0.00,20.5,23.2,"03:17:28",1
"19/06/27","03:30",0.0,23.1,85.2,1004.8,310.5,1.0,1.7,322.1,0.00,20.5,23.0,"03:24:32",1
"19/06/27","03:40",0.0,23.0,85.3,1004.3,291.1,0.8,1.4,324.5,0.00,20.4,23.4,"03:38:16",1
"19/06/27","03:50",0.0,22.9,85.5,1004.5,297.7,0.8,1.1,307.3,0.00,20.4,23.0,"03:44:48",1
"19/06/27","04:00",0.0,23.0,86.2,1004.3,330.2,1.1,1.4,321.3,0.00,20.6,23.1,"03:56:32",1
"19/06/27","04:10",0.0,22.8,86.3,1004.5,309.3,1.0,1.6,330.3,0.00,20.4,23.1,"04:00:32",1
"19/06/27","04:20",0.0,22.7,86.6,1004.5,294.4,1.0,1.6,321.7,0.00,20.4,23.2,"04:18:00",1
"19/06/27","04:30",0.0,22.6,86.8,1004.3,315.6,1.2,2.1,325.7,0.00,20.3,23.0,"04:25:20",1
"19/06/27","04:40",0.0,22.7,87.3,1004.1,331.4,1.0,1.3,319.9,0.00,20.5,23.1,"04:30:56",1
"19/06/27","04:50",0.0,22.6,87.7,1004.5,302.5,0.8,1.3,333.5,0.00,20.5,23.2,"04:41:04",1
"19/06/27","05:00",0.0,22.4,87.8,1004.1,297.0,0.8,1.4,314.8,0.00,20.3,22.9,"04:57:28",1
"19/06/27","05:10",0.0,22.4,88.1,1003.6,291.1,0.7,1.1,320.8,0.00,20.4,23.0,"05:00:08",1
"19/06/27","05:20",0.0,22.3,88.4,1003.8,288.1,0.8,1.0,313.8,0.00,20.3,23.1,"05:10:16",1
"19/06/27","05:30",0.0,22.4,88.5,1004.1,282.7,0.8,1.3,303.0,0.00,20.4,22.7,"05:28:08",1
"19/06/27","05:40",0.0,22.6,88.1,1004.1,298.1,0.7,1.6,321.2,0.00,20.6,23.0,"05:32:00",1
"19/06/27","05:50",0.0,22.7,88.2,1004.1,325.0,1.2,1.4,313.4,0.00,20.7,22.9,"05:47:20",1
"19/06/27","06:00",0.0,22.7,88.2,1004.1,338.6,0.8,1.2,321.2,0.00,20.7,22.9,"05:50:08",1
"19/06/27","06:10",0.0,22.8,88.3,1004.1,327.6,1.0,1.3,345.0,0.00,20.8,22.9,"06:05:12",1
"19/06/27","06:20",0.0,22.9,88.3,1003.8,331.7,1.0,1.3,331.6,0.00,20.9,22.7,"06:19:20",1
"19/06/27","06:30",0.0,22.9,88.2,1004.1,304.6,0.8,1.4,317.0,0.01,20.9,22.7,"06:22:08",1
"19/06/27","06:40",0.0,22.9,88.0,1003.8,293.5,0.8,1.4,309.8,0.01,20.8,23.0,"06:32:00",1
"19/06/27","06:50",0.0,23.0,87.7,1003.8,299.3,0.8,1.2,323.1,0.00,20.9,22.7,"06:46:40",1
"19/06/27","07:00",0.0,23.1,87.7,1003.8,287.5,0.7,1.9,324.9,0.00,21.0,22.7,"06:57:20",1
"19/06/27","07:10",0.0,23.5,87.8,1003.8,305.0,0.8,1.6,324.6,0.04,21.4,22.9,"07:07:52",1
"19/06/27","07:20",0.0,23.8,87.0,1003.6,319.9,1.1,1.7,338.1,0.06,21.5,22.8,"07:16:00",1
"19/06/27","07:30",0.0,24.1,85.4,1003.8,324.4,1.0,1.7,321.2,0.06,21.5,23.0,"07:26:08",1
"19/06/27","07:40",0.0,24.4,84.4,1003.6,319.4,1.0,1.6,332.7,0.06,21.6,23.1,"07:34:08",1
"19/06/27","07:50",0.0,24.8,84.2,1003.1,307.8,1.0,1.4,328.1,0.07,22.0,23.1,"07:40:48",1
"19/06/27","08:00",0.0,24.9,82.7,1003.1,314.6,0.7,1.7,329.0,0.06,21.8,23.1,"07:50:40",1
"19/06/27","08:10",0.0,25.0,81.1,1002.6,326.0,0.5,1.6,335.1,0.06,21.6,23.3,"08:05:20",1
"19/06/27","08:20",0.0,24.9,82.7,1003.1,333.7,0.5,1.6,327.5,0.10,21.8,23.2,"08:12:32",1
"19/06/27","08:30",0.0,25.2,82.3,1002.6,114.1,0.5,1.7,191.4,0.11,22.0,23.1,"08:25:04",1
"19/06/27","08:40",0.0,25.4,81.3,1002.9,170.2,0.8,2.2,156.1,0.13,22.0,23.4,"08:37:36",1
"19/06/27","08:50",0.0,26.3,79.9,1002.6,164.0,1.1,2.6,168.1,0.22,22.6,23.3,"08:48:24",1
"19/06/27","09:00",0.0,25.8,79.4,1002.4,161.9,1.1,2.6,138.0,0.14,22.0,23.5,"08:58:16",1
"19/06/27","09:10",0.0,25.4,81.1,1002.2,168.8,1.0,2.5,122.5,0.11,22.0,23.5,"09:00:24",1
"19/06/27","09:20",0.0,25.5,81.8,1001.9,164.8,0.7,1.9,130.5,0.11,22.2,23.5,"09:18:08",1
"19/06/27","09:30",0.0,25.5,80.7,1002.2,179.7,1.0,1.9,126.9,0.09,22.0,23.4,"09:20:48",1
"19/06/27","09:40",0.0,25.8,80.7,1001.9,193.7,0.6,2.0,152.2,0.10,22.3,23.7,"09:36:00",1
"19/06/27","09:50",0.0,25.7,79.5,1001.9,230.4,1.0,2.7,228.2,0.10,21.9,23.7,"09:42:24",1
"19/06/27","10:00",0.0,26.0,79.4,1001.5,282.3,0.6,1.4,231.1,0.12,22.2,23.8,"09:50:08",1
"19/06/27","10:10",0.0,26.3,79.3,1002.2,259.3,0.7,1.4,233.5,0.15,22.5,23.7,"10:01:44",1
"19/06/27","10:20",0.0,26.1,80.3,1001.5,242.8,0.7,1.3,236.9,0.12,22.5,24.0,"10:14:24",1
"19/06/27","10:30",0.2,26.3,80.1,1001.7,277.6,0.8,3.4,233.3,0.08,22.6,23.8,"10:29:36",1
"19/06/27","10:40",0.0,25.8,84.7,1001.5,270.8,0.6,1.1,312.1,0.10,23.1,23.9,"10:32:56",1
"19/06/27","10:50",0.0,25.9,82.2,1001.7,295.9,0.7,1.4,329.1,0.09,22.7,23.8,"10:45:12",1
"19/06/27","11:00",0.0,26.0,81.7,1001.5,309.9,0.8,1.9,332.5,0.07,22.7,23.9,"10:58:40",1
"19/06/27","11:10",0.0,26.1,82.0,1001.2,321.5,1.3,1.9,350.8,0.06,22.8,24.0,"11:07:44",1
"19/06/27","11:20",0.0,26.0,82.0,1001.0,316.5,1.3,2.4,334.8,0.08,22.7,24.0,"11:11:12",1
"19/06/27","11:30",0.0,25.5,84.1,1001.0,301.7,1.0,2.2,336.1,0.09,22.7,24.1,"11:27:44",1
"19/06/27","11:40",0.0,25.5,85.4,1001.5,291.0,0.8,1.9,337.8,0.09,22.9,24.1,"11:30:56",1
"19/06/27","11:50",0.0,25.8,84.6,1001.2,286.5,0.8,1.3,306.7,0.08,23.0,24.0,"11:43:12",1
"19/06/27","12:00",0.0,26.0,85.5,1000.8,310.9,1.1,1.7,338.9,0.07,23.4,24.2,"11:50:56",1
"19/06/27","12:10",0.0,25.8,84.8,1001.0,316.7,1.2,1.9,304.4,0.05,23.1,24.1,"12:03:20",1
"19/06/27","12:20",0.2,25.9,85.1,1001.0,296.8,0.7,1.6,333.5,0.03,23.2,24.1,"12:15:04",1
"19/06/27","12:30",0.4,25.7,86.5,1001.0,271.6,0.6,1.1,241.9,0.03,23.3,23.9,"12:26:40",1
"19/06/27","12:40",0.2,25.6,87.5,1001.0,344.2,0.6,1.4,342.2,0.05,23.4,24.1,"12:33:04",1
"19/06/27","12:50",0.2,25.6,87.6,1000.5,359.0,0.2,0.8,350.4,0.04,23.4,23.9,"12:49:04",1
"19/06/27","13:00",0.4,25.3,88.9,1000.8,2.2,0.5,1.1,2.6,0.04,23.4,23.9,"12:53:44",1
"19/06/27","13:10",0.4,25.3,88.9,1000.3,328.8,0.1,0.5,332.4,0.03,23.4,24.1,"13:08:08",1
"19/06/27","13:20",0.2,25.1,89.4,1000.3,269.6,0.2,0.6,229.2,0.03,23.3,23.8,"13:10:24",1
"19/06/27","13:30",0.4,25.1,89.7,1000.5,236.9,0.5,1.4,227.5,0.03,23.3,23.7,"13:22:00",1
"19/06/27","13:40",0.6,24.8,90.0,1000.0,253.5,0.6,1.1,313.4,0.03,23.1,24.1,"13:37:44",1
"19/06/27","13:50",0.6,24.7,90.7,1000.5,250.3,0.5,1.4,214.5,0.02,23.1,24.1,"13:42:48",1
"19/06/27","14:00",1.0,24.7,90.8,1000.3,201.4,0.7,1.4,204.6,0.02,23.1,24.0,"13:58:16",1
"19/06/27","14:10",1.0,24.8,91.3,1000.0,162.5,0.6,1.3,205.0,0.03,23.3,24.1,"14:02:32",1
"19/06/27","14:20",1.2,24.7,91.8,999.8,152.8,0.8,1.7,185.9,0.03,23.3,23.9,"14:16:24",1
"19/06/27","14:30",1.2,24.7,92.0,1000.0,164.8,0.8,1.6,179.6,0.03,23.4,23.7,"14:22:00",1
"19/06/27","14:40",2.6,24.7,92.5,999.6,207.0,1.2,2.7,220.2,0.04,23.4,23.9,"14:30:48",1
"19/06/27","14:50",0.8,24.8,92.1,999.8,151.7,1.1,2.4,137.7,0.06,23.5,24.0,"14:44:08",1
"19/06/27","15:00",0.4,24.5,92.1,999.3,122.8,1.0,2.7,157.9,0.06,23.2,24.0,"14:59:12",1
"19/06/27","15:10",0.2,24.5,92.6,999.3,116.5,0.7,1.6,138.6,0.02,23.3,23.9,"15:08:16",1
"19/06/27","15:20",0.2,24.4,92.6,999.3,134.7,0.7,2.2,123.2,0.03,23.2,23.8,"15:18:32",1
"19/06/27","15:30",0.2,24.8,93.0,999.1,123.3,0.7,2.6,154.9,0.07,23.6,23.8,"15:21:04",1
"19/06/27","15:40",0.2,24.6,92.7,999.1,134.3,0.6,1.6,134.9,0.04,23.4,23.9,"15:37:36",1
"19/06/27","15:50",0.0,24.5,93.0,999.1,181.8,0.6,2.4,208.3,0.01,23.3,23.7,"15:44:24",1
"19/06/27","16:00",0.0,24.3,92.9,998.6,197.5,0.7,1.6,229.7,0.02,23.1,24.0,"15:57:04",1
"19/06/27","16:10",0.0,24.4,93.0,998.6,315.5,0.5,1.2,28.8,0.00,23.2,23.8,"16:05:20",1
"19/06/27","16:20",0.0,24.4,92.9,998.6,334.4,0.7,2.6,359.7,0.02,23.2,23.8,"16:12:08",1
"19/06/27","16:30",0.2,24.7,93.4,998.6,310.3,0.2,0.9,75.1,0.02,23.6,23.9,"16:24:08",1
"19/06/27","16:40",0.4,24.6,93.2,998.6,354.2,0.3,1.1,70.3,0.01,23.5,23.8,"16:33:20",1
"19/06/27","16:50",1.0,24.6,93.2,998.6,331.5,0.3,1.0,358.7,0.01,23.5,23.8,"16:41:04",1
"19/06/27","17:00",1.2,24.5,93.4,998.2,319.4,0.2,0.8,344.3,0.02,23.4,24.0,"16:52:40",1
"19/06/27","17:10",1.2,24.7,93.6,998.6,286.1,0.3,1.3,341.7,0.03,23.6,23.9,"17:08:40",1
"19/06/27","17:20",1.0,24.6,93.5,998.4,309.9,0.5,1.3,335.8,0.01,23.5,23.7,"17:12:40",1
"19/06/27","17:30",0.6,24.5,93.7,998.6,308.9,0.6,1.3,342.1,0.00,23.5,23.8,"17:24:34",1
"19/06/27","17:40",0.4,24.4,93.7,998.4,167.0,1.0,2.0,185.5,0.00,23.4,23.8,"17:33:20",1
"19/06/27","17:50",1.0,24.3,93.8,998.4,147.0,0.5,2.7,135.4,0.00,23.3,23.7,"17:40:08",1
"19/06/27","18:00",1.6,24.3,93.9,998.2,123.4,0.3,1.3,124.2,0.00,23.3,23.6,"17:56:24",1
"19/06/27","18:10",0.2,24.3,94.1,998.4,158.2,0.6,1.7,186.6,0.00,23.3,23.7,"18:00:02",1
"19/06/27","18:20",1.8,24.2,94.1,998.4,160.1,1.1,2.4,188.4,0.00,23.2,23.7,"18:10:08",1
"19/06/27","18:30",0.2,24.2,94.2,998.2,155.6,0.8,1.8,201.5,0.00,23.2,23.7,"18:26:16",1
"19/06/27","18:40",0.0,24.2,94.2,998.6,168.5,1.2,2.6,162.2,0.00,23.2,23.7,"18:39:36",1
"19/06/27","18:50",0.0,24.1,94.1,998.4,151.2,1.2,2.8,133.5,0.00,23.1,23.6,"18:49:36",1
"19/06/27","19:00",0.0,23.9,94.3,998.4,171.8,0.8,2.0,199.4,0.00,23.0,23.7,"18:52:00",1
"19/06/27","19:10",0.0,23.9,94.4,998.4,161.7,0.5,1.2,138.1,0.00,23.0,23.9,"19:08:08",1
"19/06/27","19:20",0.0,24.0,94.5,998.2,172.6,0.3,0.9,134.8,0.00,23.1,23.7,"19:15:52",1
"19/06/27","19:30",0.0,23.9,94.6,998.4,293.1,0.3,1.1,6.0,0.00,23.0,23.5,"19:20:24",1
"19/06/27","19:40",0.0,24.0,94.7,998.4,311.2,0.6,1.0,317.3,0.00,23.1,23.7,"19:31:52",1
"19/06/27","19:50",0.0,24.0,94.7,998.2,312.5,0.6,1.0,347.5,0.00,23.1,23.6,"19:45:44",1
"19/06/27","20:00",0.0,24.0,94.8,998.2,311.3,0.5,1.0,323.1,0.00,23.2,23.3,"19:51:52",1
"19/06/27","20:10",0.2,23.9,94.7,998.2,198.3,0.5,1.1,238.3,0.00,23.0,23.7,"20:01:28",1
"19/06/27","20:20",0.0,23.8,94.7,998.2,219.2,0.3,0.9,196.5,0.00,22.9,23.5,"20:10:56",1
"19/06/27","20:30",0.0,23.8,94.6,998.2,186.6,0.7,2.1,182.4,0.00,22.9,23.4,"20:29:36",1
"19/06/27","20:40",0.0,23.6,94.7,998.2,171.0,1.6,3.4,169.5,0.00,22.7,23.2,"20:32:48",1
"19/06/27","20:50",0.0,23.6,94.8,997.9,160.9,1.0,2.4,182.4,0.00,22.8,23.4,"20:46:16",1
"19/06/27","21:00",0.0,23.6,94.8,997.9,162.7,0.7,1.4,142.8,0.00,22.8,23.3,"20:50:24",1
"19/06/27","21:10",0.0,23.6,94.7,997.9,132.4,0.5,1.3,163.6,0.00,22.7,23.4,"21:02:56",1
"19/06/27","21:20",0.2,23.7,94.8,997.9,88.7,0.3,1.6,168.0,0.00,22.9,23.5,"21:18:16",1
"19/06/27","21:30",0.0,23.6,94.9,997.9,116.5,0.5,1.1,163.4,0.00,22.8,23.3,"21:20:56",1
"19/06/27","21:40",0.0,23.6,94.9,997.9,345.4,0.2,1.3,50.0,0.00,22.8,23.5,"21:39:20",1
"19/06/27","21:50",0.0,23.5,94.9,997.9,116.2,0.2,1.0,130.3,0.00,22.7,23.5,"21:47:44",1
"19/06/27","22:00",0.0,23.5,95.0,998.2,74.9,0.1,0.5,33.2,0.00,22.7,23.4,"21:53:36",1
"19/06/27","22:10",0.0,23.5,95.1,997.7,86.7,0.3,1.8,124.2,0.00,22.7,23.3,"22:07:28",1
"19/06/27","22:20",0.0,23.4,95.0,998.2,147.7,0.6,1.4,112.4,0.00,22.6,23.3,"22:18:40",1
"19/06/27","22:30",0.0,23.4,95.0,997.9,161.6,0.5,1.6,128.6,0.00,22.6,23.3,"22:22:16",1
"19/06/27","22:40",0.0,23.4,95.1,997.9,359.2,0.2,0.8,300.1,0.00,22.6,23.5,"22:38:40",1
"19/06/27","22:50",0.0,23.4,95.1,997.7,350.2,0.6,1.2,331.6,0.00,22.6,23.2,"22:46:48",1
"19/06/27","23:00",0.0,23.4,95.1,997.4,330.6,0.6,1.2,334.5,0.00,22.6,23.4,"22:52:32",1
"19/06/27","23:10",0.0,23.3,95.2,997.4,341.0,0.6,1.2,338.9,0.00,22.5,23.2,"23:01:28",1
"19/06/27","23:20",0.0,23.3,95.3,997.0,310.5,0.3,0.6,309.1,0.00,22.5,23.1,"23:12:08",1
"19/06/27","23:30",0.0,23.2,95.3,997.2,297.6,0.3,0.8,331.6,0.00,22.4,23.4,"23:24:32",1
"19/06/27","23:40",0.0,23.2,95.4,997.0,278.2,0.3,0.9,315.5,0.00,22.5,23.2,"23:39:36",1
"19/06/27","23:50",0.0,23.1,95.4,996.3,329.2,0.8,1.2,329.9,0.00,22.4,23.3,"23:44:00",1
"19/06/27","24:00",0.0,23.1,95.5,997.0,315.5,0.3,1.2,295.2,0.00,22.4,23.2,"23:52:10",1
